owner,sensor,date,latitude,longitude,vertical_datum,mass_concentration_of_oxygen_in_sea_water,qcFlag 
DISL,ioos:station:DISL:DISL:1,2010-11-01T00:00:00Z,30.2513,-88.0778,6.018,8.33,1111122 
DISL,ioos:station:DISL:DISL:1,2010-11-01T00:30:00Z,30.2513,-88.0778,6.074,8.3,1111122 
DISL,ioos:station:DISL:DISL:1,2010-11-01T01:00:00Z,30.2513,-88.0778,6.131,8.3,1111122 
DISL,ioos:station:DISL:DISL:1,2010-11-01T01:30:00Z,30.2513,-88.0778,6.21,8.1,1111122 
DISL,ioos:station:DISL:DISL:1,2010-11-01T02:00:00Z,30.2513,-88.0778,6.255,7.53,1111122 
DISL,ioos:station:DISL:DISL:1,2010-11-01T02:30:00Z,30.2513,-88.0778,6.315,7.92,1111122 
DISL,ioos:station:DISL:DISL:1,2010-11-01T03:00:00Z,30.2513,-88.0778,6.392,7.9,1111122 
DISL,ioos:station:DISL:DISL:1,2010-11-01T03:30:00Z,30.2513,-88.0778,6.432,7.88,1111122 
DISL,ioos:station:DISL:DISL:1,2010-11-01T04:00:00Z,30.2513,-88.0778,6.461,7.96,1111122 
DISL,ioos:station:DISL:DISL:1,2010-11-01T04:30:00Z,30.2513,-88.0778,6.477,7.87,1111122 
DISL,ioos:station:DISL:DISL:1,2010-11-01T05:00:00Z,30.2513,-88.0778,6.545,7.91,1111122 
DISL,ioos:station:DISL:DISL:1,2010-11-01T05:30:00Z,30.2513,-88.0778,6.528,7.66,1111122 
DISL,ioos:station:DISL:DISL:1,2010-11-01T06:00:00Z,30.2513,-88.0778,6.504,7.85,1111122 
DISL,ioos:station:DISL:DISL:1,2010-11-01T06:30:00Z,30.2513,-88.0778,6.567,7.64,1111122 
DISL,ioos:station:DISL:DISL:1,2010-11-01T07:00:00Z,30.2513,-88.0778,6.563,7.99,1111122 
DISL,ioos:station:DISL:DISL:1,2010-11-01T07:30:00Z,30.2513,-88.0778,6.576,7.68,1111122 
DISL,ioos:station:DISL:DISL:1,2010-11-01T08:00:00Z,30.2513,-88.0778,6.591,7.61,1111122 
DISL,ioos:station:DISL:DISL:1,2010-11-01T08:30:00Z,30.2513,-88.0778,6.598,7.53,1111122 
DISL,ioos:station:DISL:DISL:1,2010-11-01T09:00:00Z,30.2513,-88.0778,6.582,7.66,1111122 
DISL,ioos:station:DISL:DISL:1,2010-11-01T09:30:00Z,30.2513,-88.0778,6.538,7.64,1111122 
DISL,ioos:station:DISL:DISL:1,2010-11-01T10:00:00Z,30.2513,-88.0778,6.552,7.79,1111122 
DISL,ioos:station:DISL:DISL:1,2010-11-01T10:30:00Z,30.2513,-88.0778,6.534,7.6,1111122 
DISL,ioos:station:DISL:DISL:1,2010-11-01T11:00:00Z,30.2513,-88.0778,6.534,7.55,1111122 
DISL,ioos:station:DISL:DISL:1,2010-11-01T11:30:00Z,30.2513,-88.0778,6.538,8.25,1111122 
DISL,ioos:station:DISL:DISL:1,2010-11-01T12:00:00Z,30.2513,-88.0778,6.571,8.27,1111122 
DISL,ioos:station:DISL:DISL:1,2010-11-01T12:30:00Z,30.2513,-88.0778,6.518,8.12,1111122 
DISL,ioos:station:DISL:DISL:1,2010-11-01T13:00:00Z,30.2513,-88.0778,6.471,8.34,1111122 
DISL,ioos:station:DISL:DISL:1,2010-11-01T13:30:00Z,30.2513,-88.0778,6.394,8.36,1111122 
DISL,ioos:station:DISL:DISL:1,2010-11-01T14:00:00Z,30.2513,-88.0778,6.457,8.35,1111122 
DISL,ioos:station:DISL:DISL:1,2010-11-01T14:30:00Z,30.2513,-88.0778,6.388,8.52,1111122 
DISL,ioos:station:DISL:DISL:1,2010-11-01T15:00:00Z,30.2513,-88.0778,6.277,8.63,1111122 
DISL,ioos:station:DISL:DISL:1,2010-11-01T15:30:00Z,30.2513,-88.0778,6.291,8.71,1111122 
DISL,ioos:station:DISL:DISL:1,2010-11-01T16:00:00Z,30.2513,-88.0778,6.245,8.63,1111122 
DISL,ioos:station:DISL:DISL:1,2010-11-01T16:30:00Z,30.2513,-88.0778,6.093,8.36,1111122 
DISL,ioos:station:DISL:DISL:1,2010-11-01T17:00:00Z,30.2513,-88.0778,6.136,8.43,1111122 
DISL,ioos:station:DISL:DISL:1,2010-11-01T17:30:00Z,30.2513,-88.0778,6.009,8.46,1111122 
DISL,ioos:station:DISL:DISL:1,2010-11-01T18:00:00Z,30.2513,-88.0778,6.028,8.5,1111122 
DISL,ioos:station:DISL:DISL:1,2010-11-01T18:30:00Z,30.2513,-88.0778,5.959,8.53,1111122 
DISL,ioos:station:DISL:DISL:1,2010-11-01T19:00:00Z,30.2513,-88.0778,5.989,8.57,1111122 
DISL,ioos:station:DISL:DISL:1,2010-11-01T19:30:00Z,30.2513,-88.0778,6.046,8.33,1111122 
DISL,ioos:station:DISL:DISL:1,2010-11-01T20:00:00Z,30.2513,-88.0778,6.088,8.29,1111122 
DISL,ioos:station:DISL:DISL:1,2010-11-01T20:30:00Z,30.2513,-88.0778,6.001,8.37,1111122 
DISL,ioos:station:DISL:DISL:1,2010-11-01T21:00:00Z,30.2513,-88.0778,6.065,8.03,1111122 
DISL,ioos:station:DISL:DISL:1,2010-11-01T21:30:00Z,30.2513,-88.0778,6.112,8.11,1111122 
DISL,ioos:station:DISL:DISL:1,2010-11-01T22:00:00Z,30.2513,-88.0778,6.118,8.08,1111122 
DISL,ioos:station:DISL:DISL:1,2010-11-01T22:30:00Z,30.2513,-88.0778,6.114,8.1,1111122 
DISL,ioos:station:DISL:DISL:1,2010-11-01T23:00:00Z,30.2513,-88.0778,6.174,8.15,1111122 
DISL,ioos:station:DISL:DISL:1,2010-11-01T23:30:00Z,30.2513,-88.0778,6.276,8.2,1111122 
DISL,ioos:station:DISL:DISL:1,2010-11-02T00:00:00Z,30.2513,-88.0778,6.245,8.1,1111122 
DISL,ioos:station:DISL:DISL:1,2010-11-02T00:30:00Z,30.2513,-88.0778,6.326,7.64,1111122 
DISL,ioos:station:DISL:DISL:1,2010-11-02T01:00:00Z,30.2513,-88.0778,6.493,7.73,1111122 
DISL,ioos:station:DISL:DISL:1,2010-11-02T01:30:00Z,30.2513,-88.0778,6.426,7.66,1111122 
DISL,ioos:station:DISL:DISL:1,2010-11-02T02:00:00Z,30.2513,-88.0778,6.279,7.82,1111122 
DISL,ioos:station:DISL:DISL:1,2010-11-02T02:30:00Z,30.2513,-88.0778,6.438,7.84,1111122 
DISL,ioos:station:DISL:DISL:1,2010-11-02T03:00:00Z,30.2513,-88.0778,6.484,7.99,1111122 
DISL,ioos:station:DISL:DISL:1,2010-11-02T03:30:00Z,30.2513,-88.0778,6.476,7.94,1111122 
DISL,ioos:station:DISL:DISL:1,2010-11-02T04:00:00Z,30.2513,-88.0778,6.438,8.15,1111122 
DISL,ioos:station:DISL:DISL:1,2010-11-02T04:30:00Z,30.2513,-88.0778,6.415,8.13,1111122 
DISL,ioos:station:DISL:DISL:1,2010-11-02T05:00:00Z,30.2513,-88.0778,6.352,7.98,1111122 
DISL,ioos:station:DISL:DISL:1,2010-11-02T05:30:00Z,30.2513,-88.0778,6.304,8.34,1111122 
DISL,ioos:station:DISL:DISL:1,2010-11-02T06:00:00Z,30.2513,-88.0778,6.256,7.71,1111122 
DISL,ioos:station:DISL:DISL:1,2010-11-02T06:30:00Z,30.2513,-88.0778,6.285,8.92,1111122 
DISL,ioos:station:DISL:DISL:1,2010-11-02T07:00:00Z,30.2513,-88.0778,6.253,8.61,1111122 
DISL,ioos:station:DISL:DISL:1,2010-11-02T07:30:00Z,30.2513,-88.0778,6.258,8.55,1111122 
DISL,ioos:station:DISL:DISL:1,2010-11-02T08:00:00Z,30.2513,-88.0778,6.239,8.49,1111122 
DISL,ioos:station:DISL:DISL:1,2010-11-02T08:30:00Z,30.2513,-88.0778,6.215,8.27,1111122 
DISL,ioos:station:DISL:DISL:1,2010-11-02T09:00:00Z,30.2513,-88.0778,6.212,8.18,1111122 
DISL,ioos:station:DISL:DISL:1,2010-11-02T09:30:00Z,30.2513,-88.0778,6.172,8.0,1111122 
DISL,ioos:station:DISL:DISL:1,2010-11-02T10:00:00Z,30.2513,-88.0778,6.219,7.79,1111122 
DISL,ioos:station:DISL:DISL:1,2010-11-02T10:30:00Z,30.2513,-88.0778,6.168,8.03,1111122 
DISL,ioos:station:DISL:DISL:1,2010-11-02T11:00:00Z,30.2513,-88.0778,6.164,7.95,1111122 
DISL,ioos:station:DISL:DISL:1,2010-11-02T11:30:00Z,30.2513,-88.0778,6.087,7.92,1111122 
DISL,ioos:station:DISL:DISL:1,2010-11-02T12:00:00Z,30.2513,-88.0778,6.306,7.82,1111122 
DISL,ioos:station:DISL:DISL:1,2010-11-02T12:30:00Z,30.2513,-88.0778,6.38,7.54,1111122 
DISL,ioos:station:DISL:DISL:1,2010-11-02T13:00:00Z,30.2513,-88.0778,6.111,7.45,1111122 
DISL,ioos:station:DISL:DISL:1,2010-11-02T13:30:00Z,30.2513,-88.0778,6.072,7.15,1111122 
DISL,ioos:station:DISL:DISL:1,2010-11-02T14:00:00Z,30.2513,-88.0778,6.317,7.03,1111122 
DISL,ioos:station:DISL:DISL:1,2010-11-02T14:30:00Z,30.2513,-88.0778,6.146,6.92,1111122 
DISL,ioos:station:DISL:DISL:1,2010-11-02T15:00:00Z,30.2513,-88.0778,6.183,6.94,1111122 
DISL,ioos:station:DISL:DISL:1,2010-11-02T15:30:00Z,30.2513,-88.0778,6.133,6.63,1111122 
DISL,ioos:station:DISL:DISL:1,2010-11-02T16:00:00Z,30.2513,-88.0778,6.025,7.04,1111122 
DISL,ioos:station:DISL:DISL:1,2010-11-02T16:30:00Z,30.2513,-88.0778,6.392,7.13,1111122 
DISL,ioos:station:DISL:DISL:1,2010-11-02T17:00:00Z,30.2513,-88.0778,6.348,6.99,1111122 
DISL,ioos:station:DISL:DISL:1,2010-11-02T17:30:00Z,30.2513,-88.0778,6.271,7.16,1111122 
DISL,ioos:station:DISL:DISL:1,2010-11-02T18:00:00Z,30.2513,-88.0778,6.351,7.27,1111122 
DISL,ioos:station:DISL:DISL:1,2010-11-02T18:30:00Z,30.2513,-88.0778,6.265,7.27,1111122 
DISL,ioos:station:DISL:DISL:1,2010-11-02T19:00:00Z,30.2513,-88.0778,6.462,7.3,1111122 
DISL,ioos:station:DISL:DISL:1,2010-11-02T19:30:00Z,30.2513,-88.0778,6.525,7.28,1111122 
DISL,ioos:station:DISL:DISL:1,2010-11-02T20:00:00Z,30.2513,-88.0778,6.514,7.3,1111122 
DISL,ioos:station:DISL:DISL:1,2010-11-02T20:30:00Z,30.2513,-88.0778,6.641,7.32,1111122 
DISL,ioos:station:DISL:DISL:1,2010-11-02T21:00:00Z,30.2513,-88.0778,6.656,7.34,1111122 
DISL,ioos:station:DISL:DISL:1,2010-11-02T21:30:00Z,30.2513,-88.0778,6.717,7.35,1111122 
DISL,ioos:station:DISL:DISL:1,2010-11-02T22:00:00Z,30.2513,-88.0778,6.642,7.3,1111122 
DISL,ioos:station:DISL:DISL:1,2010-11-02T22:30:00Z,30.2513,-88.0778,6.685,7.23,1111122 
DISL,ioos:station:DISL:DISL:1,2010-11-02T23:00:00Z,30.2513,-88.0778,6.638,6.68,1111122 
DISL,ioos:station:DISL:DISL:1,2010-11-02T23:30:00Z,30.2513,-88.0778,6.695,6.58,1111122 
DISL,ioos:station:DISL:DISL:1,2010-11-03T00:00:00Z,30.2513,-88.0778,6.812,6.47,1111122 
DISL,ioos:station:DISL:DISL:1,2010-11-03T00:30:00Z,30.2513,-88.0778,6.764,6.55,1111122 
DISL,ioos:station:DISL:DISL:1,2010-11-03T01:00:00Z,30.2513,-88.0778,6.794,6.56,1111122 
DISL,ioos:station:DISL:DISL:1,2010-11-03T01:30:00Z,30.2513,-88.0778,6.905,6.39,1111122 
DISL,ioos:station:DISL:DISL:1,2010-11-03T02:00:00Z,30.2513,-88.0778,6.833,6.47,1111122 
DISL,ioos:station:DISL:DISL:1,2010-11-03T02:30:00Z,30.2513,-88.0778,6.821,6.7,1111122 
DISL,ioos:station:DISL:DISL:1,2010-11-03T03:00:00Z,30.2513,-88.0778,6.884,6.67,1111122 
DISL,ioos:station:DISL:DISL:1,2010-11-03T03:30:00Z,30.2513,-88.0778,6.954,6.6,1111122 
DISL,ioos:station:DISL:DISL:1,2010-11-03T04:00:00Z,30.2513,-88.0778,6.939,6.61,1111122 
DISL,ioos:station:DISL:DISL:1,2010-11-03T04:30:00Z,30.2513,-88.0778,6.88,6.55,1111122 
DISL,ioos:station:DISL:DISL:1,2010-11-03T05:00:00Z,30.2513,-88.0778,6.831,6.61,1111122 
DISL,ioos:station:DISL:DISL:1,2010-11-03T05:30:00Z,30.2513,-88.0778,6.835,6.37,1111122 
DISL,ioos:station:DISL:DISL:1,2010-11-03T06:00:00Z,30.2513,-88.0778,6.943,6.79,1111122 
DISL,ioos:station:DISL:DISL:1,2010-11-03T06:30:00Z,30.2513,-88.0778,6.879,6.65,1111122 
DISL,ioos:station:DISL:DISL:1,2010-11-03T07:00:00Z,30.2513,-88.0778,6.866,6.24,1111122 
DISL,ioos:station:DISL:DISL:1,2010-11-03T07:30:00Z,30.2513,-88.0778,6.625,5.74,1111122 
DISL,ioos:station:DISL:DISL:1,2010-11-03T08:00:00Z,30.2513,-88.0778,6.567,5.67,1111122 
DISL,ioos:station:DISL:DISL:1,2010-11-03T08:30:00Z,30.2513,-88.0778,6.553,5.84,1111122 
DISL,ioos:station:DISL:DISL:1,2010-11-03T09:00:00Z,30.2513,-88.0778,6.653,5.64,1111122 
DISL,ioos:station:DISL:DISL:1,2010-11-03T09:30:00Z,30.2513,-88.0778,6.584,5.71,1111122 
DISL,ioos:station:DISL:DISL:1,2010-11-03T10:00:00Z,30.2513,-88.0778,6.554,6.26,1111122 
DISL,ioos:station:DISL:DISL:1,2010-11-03T10:30:00Z,30.2513,-88.0778,6.668,6.61,1111122 
DISL,ioos:station:DISL:DISL:1,2010-11-03T11:00:00Z,30.2513,-88.0778,6.589,6.19,1111122 
DISL,ioos:station:DISL:DISL:1,2010-11-03T11:30:00Z,30.2513,-88.0778,6.538,5.98,1111122 
DISL,ioos:station:DISL:DISL:1,2010-11-03T12:00:00Z,30.2513,-88.0778,6.504,5.86,1111122 
DISL,ioos:station:DISL:DISL:1,2010-11-03T12:30:00Z,30.2513,-88.0778,6.512,5.88,1111122 
DISL,ioos:station:DISL:DISL:1,2010-11-03T13:00:00Z,30.2513,-88.0778,6.602,5.94,1111122 
DISL,ioos:station:DISL:DISL:1,2010-11-03T13:30:00Z,30.2513,-88.0778,6.703,6.0,1111122 
DISL,ioos:station:DISL:DISL:1,2010-11-03T14:00:00Z,30.2513,-88.0778,6.914,6.1,1111122 
DISL,ioos:station:DISL:DISL:1,2010-11-03T14:30:00Z,30.2513,-88.0778,6.497,6.14,1111122 
DISL,ioos:station:DISL:DISL:1,2010-11-03T15:00:00Z,30.2513,-88.0778,6.466,5.97,1111122 
DISL,ioos:station:DISL:DISL:1,2010-11-03T15:30:00Z,30.2513,-88.0778,6.894,6.01,1111122 
DISL,ioos:station:DISL:DISL:1,2010-11-03T16:00:00Z,30.2513,-88.0778,6.816,5.9,1111122 
DISL,ioos:station:DISL:DISL:1,2010-11-03T16:30:00Z,30.2513,-88.0778,6.797,6.08,1111122 
DISL,ioos:station:DISL:DISL:1,2010-11-03T17:00:00Z,30.2513,-88.0778,6.707,6.22,1111122 
DISL,ioos:station:DISL:DISL:1,2010-11-03T17:30:00Z,30.2513,-88.0778,6.68,6.36,1111122 
DISL,ioos:station:DISL:DISL:1,2010-11-03T18:00:00Z,30.2513,-88.0778,6.747,6.8,1111122 
DISL,ioos:station:DISL:DISL:1,2010-11-03T18:30:00Z,30.2513,-88.0778,6.735,6.68,1111122 
DISL,ioos:station:DISL:DISL:1,2010-11-03T19:00:00Z,30.2513,-88.0778,6.966,6.88,1111122 
DISL,ioos:station:DISL:DISL:1,2010-11-03T19:30:00Z,30.2513,-88.0778,6.946,7.05,1111122 
DISL,ioos:station:DISL:DISL:1,2010-11-03T20:00:00Z,30.2513,-88.0778,6.741,7.2,1111122 
DISL,ioos:station:DISL:DISL:1,2010-11-03T20:30:00Z,30.2513,-88.0778,6.674,7.26,1111122 
DISL,ioos:station:DISL:DISL:1,2010-11-03T21:00:00Z,30.2513,-88.0778,6.997,7.1,1111122 
DISL,ioos:station:DISL:DISL:1,2010-11-03T21:30:00Z,30.2513,-88.0778,6.827,7.08,1111122 
DISL,ioos:station:DISL:DISL:1,2010-11-03T22:00:00Z,30.2513,-88.0778,7.06,6.95,1111122 
DISL,ioos:station:DISL:DISL:1,2010-11-03T22:30:00Z,30.2513,-88.0778,7.04,6.9,1111122 
DISL,ioos:station:DISL:DISL:1,2010-11-03T23:00:00Z,30.2513,-88.0778,6.822,6.74,1111122 
DISL,ioos:station:DISL:DISL:1,2010-11-03T23:30:00Z,30.2513,-88.0778,6.866,6.22,1111122 
DISL,ioos:station:DISL:DISL:1,2010-11-04T00:00:00Z,30.2513,-88.0778,7.08,6.09,1111122 
DISL,ioos:station:DISL:DISL:1,2010-11-04T00:30:00Z,30.2513,-88.0778,7.15,6.17,1111122 
DISL,ioos:station:DISL:DISL:1,2010-11-04T01:00:00Z,30.2513,-88.0778,7.03,6.24,1111122 
DISL,ioos:station:DISL:DISL:1,2010-11-04T01:30:00Z,30.2513,-88.0778,7.13,6.32,1111122 
DISL,ioos:station:DISL:DISL:1,2010-11-04T02:00:00Z,30.2513,-88.0778,7.07,6.32,1111122 
DISL,ioos:station:DISL:DISL:1,2010-11-04T02:30:00Z,30.2513,-88.0778,7.08,6.31,1111122 
DISL,ioos:station:DISL:DISL:1,2010-11-04T03:00:00Z,30.2513,-88.0778,7.33,6.24,1111122 
DISL,ioos:station:DISL:DISL:1,2010-11-04T03:30:00Z,30.2513,-88.0778,7.28,6.26,1111122 
DISL,ioos:station:DISL:DISL:1,2010-11-04T04:00:00Z,30.2513,-88.0778,7.26,6.27,1111122 
DISL,ioos:station:DISL:DISL:1,2010-11-04T04:30:00Z,30.2513,-88.0778,7.14,6.31,1111122 
DISL,ioos:station:DISL:DISL:1,2010-11-04T05:00:00Z,30.2513,-88.0778,7.02,6.58,1111122 
DISL,ioos:station:DISL:DISL:1,2010-11-04T05:30:00Z,30.2513,-88.0778,6.974,6.45,1111122 
DISL,ioos:station:DISL:DISL:1,2010-11-04T06:00:00Z,30.2513,-88.0778,6.992,6.58,1111122 
DISL,ioos:station:DISL:DISL:1,2010-11-04T06:30:00Z,30.2513,-88.0778,6.919,6.65,1111122 
DISL,ioos:station:DISL:DISL:1,2010-11-04T07:00:00Z,30.2513,-88.0778,6.994,6.74,1111122 
DISL,ioos:station:DISL:DISL:1,2010-11-04T07:30:00Z,30.2513,-88.0778,6.522,6.77,1111122 
DISL,ioos:station:DISL:DISL:1,2010-11-04T08:00:00Z,30.2513,-88.0778,6.739,6.83,1111122 
DISL,ioos:station:DISL:DISL:1,2010-11-04T08:30:00Z,30.2513,-88.0778,6.6,6.87,1111122 
DISL,ioos:station:DISL:DISL:1,2010-11-04T09:00:00Z,30.2513,-88.0778,6.347,6.92,1111122 
DISL,ioos:station:DISL:DISL:1,2010-11-04T09:30:00Z,30.2513,-88.0778,6.636,6.88,1111122 
DISL,ioos:station:DISL:DISL:1,2010-11-04T10:00:00Z,30.2513,-88.0778,6.717,6.91,1111122 
DISL,ioos:station:DISL:DISL:1,2010-11-04T10:30:00Z,30.2513,-88.0778,6.249,6.95,1111122 
DISL,ioos:station:DISL:DISL:1,2010-11-04T11:00:00Z,30.2513,-88.0778,5.99,7.05,1111122 
DISL,ioos:station:DISL:DISL:1,2010-11-04T11:30:00Z,30.2513,-88.0778,6.609,7.12,1111122 
DISL,ioos:station:DISL:DISL:1,2010-11-04T12:00:00Z,30.2513,-88.0778,6.335,7.13,1111122 
DISL,ioos:station:DISL:DISL:1,2010-11-04T12:30:00Z,30.2513,-88.0778,5.959,7.17,1111122 
DISL,ioos:station:DISL:DISL:1,2010-11-04T13:00:00Z,30.2513,-88.0778,6.563,7.23,1111122 
DISL,ioos:station:DISL:DISL:1,2010-11-04T13:30:00Z,30.2513,-88.0778,6.732,7.31,1111122 
DISL,ioos:station:DISL:DISL:1,2010-11-04T14:00:00Z,30.2513,-88.0778,5.722,7.34,1111122 
DISL,ioos:station:DISL:DISL:1,2010-11-04T14:30:00Z,30.2513,-88.0778,5.891,7.31,1111122 
DISL,ioos:station:DISL:DISL:1,2010-11-04T15:00:00Z,30.2513,-88.0778,6.454,7.55,1111122 
DISL,ioos:station:DISL:DISL:1,2010-11-04T15:30:00Z,30.2513,-88.0778,6.411,7.39,1111122 
DISL,ioos:station:DISL:DISL:1,2010-11-04T16:00:00Z,30.2513,-88.0778,5.422,7.42,1111122 
DISL,ioos:station:DISL:DISL:1,2010-11-04T16:30:00Z,30.2513,-88.0778,5.633,7.7,1111122 
DISL,ioos:station:DISL:DISL:1,2010-11-04T17:00:00Z,30.2513,-88.0778,5.881,7.65,1111122 
DISL,ioos:station:DISL:DISL:1,2010-11-04T17:30:00Z,30.2513,-88.0778,6.286,7.6,1111122 
DISL,ioos:station:DISL:DISL:1,2010-11-04T18:00:00Z,30.2513,-88.0778,6.223,7.57,1111122 
DISL,ioos:station:DISL:DISL:1,2010-11-04T18:30:00Z,30.2513,-88.0778,6.148,7.7,1111122 
DISL,ioos:station:DISL:DISL:1,2010-11-04T19:00:00Z,30.2513,-88.0778,6.16,7.67,1111122 
DISL,ioos:station:DISL:DISL:1,2010-11-04T19:30:00Z,30.2513,-88.0778,6.304,7.83,1111122 
DISL,ioos:station:DISL:DISL:1,2010-11-04T20:00:00Z,30.2513,-88.0778,6.455,7.83,1111122 
DISL,ioos:station:DISL:DISL:1,2010-11-04T20:30:00Z,30.2513,-88.0778,6.63,7.8,1111122 
DISL,ioos:station:DISL:DISL:1,2010-11-04T21:00:00Z,30.2513,-88.0778,6.856,7.78,1111122 
DISL,ioos:station:DISL:DISL:1,2010-11-04T21:30:00Z,30.2513,-88.0778,6.787,7.73,1111122 
DISL,ioos:station:DISL:DISL:1,2010-11-04T22:00:00Z,30.2513,-88.0778,6.623,7.72,1111122 
DISL,ioos:station:DISL:DISL:1,2010-11-04T22:30:00Z,30.2513,-88.0778,6.818,7.73,1111122 
DISL,ioos:station:DISL:DISL:1,2010-11-04T23:00:00Z,30.2513,-88.0778,6.841,7.75,1111122 
DISL,ioos:station:DISL:DISL:1,2010-11-04T23:30:00Z,30.2513,-88.0778,6.949,7.59,1111122 
DISL,ioos:station:DISL:DISL:1,2010-11-05T00:00:00Z,30.2513,-88.0778,6.834,7.68,1111122 
DISL,ioos:station:DISL:DISL:1,2010-11-05T00:30:00Z,30.2513,-88.0778,6.945,7.62,1111122 
DISL,ioos:station:DISL:DISL:1,2010-11-05T01:00:00Z,30.2513,-88.0778,6.813,7.6,1111122 
DISL,ioos:station:DISL:DISL:1,2010-11-05T01:30:00Z,30.2513,-88.0778,6.984,7.59,1111122 
DISL,ioos:station:DISL:DISL:1,2010-11-05T02:00:00Z,30.2513,-88.0778,6.944,7.57,1111122 
DISL,ioos:station:DISL:DISL:1,2010-11-05T02:30:00Z,30.2513,-88.0778,6.889,7.55,1111122 
DISL,ioos:station:DISL:DISL:1,2010-11-05T03:00:00Z,30.2513,-88.0778,6.631,7.52,1111122 
DISL,ioos:station:DISL:DISL:1,2010-11-05T03:30:00Z,30.2513,-88.0778,6.762,7.52,1111122 
DISL,ioos:station:DISL:DISL:1,2010-11-05T04:00:00Z,30.2513,-88.0778,6.831,7.49,1111122 
DISL,ioos:station:DISL:DISL:1,2010-11-05T04:30:00Z,30.2513,-88.0778,6.923,7.48,1111122 
DISL,ioos:station:DISL:DISL:1,2010-11-05T05:00:00Z,30.2513,-88.0778,6.817,7.48,1111122 
DISL,ioos:station:DISL:DISL:1,2010-11-05T05:30:00Z,30.2513,-88.0778,6.446,7.46,1111122 
DISL,ioos:station:DISL:DISL:1,2010-11-05T06:00:00Z,30.2513,-88.0778,6.232,7.48,1111122 
DISL,ioos:station:DISL:DISL:1,2010-11-05T06:30:00Z,30.2513,-88.0778,6.176,7.46,1111122 
DISL,ioos:station:DISL:DISL:1,2010-11-05T07:00:00Z,30.2513,-88.0778,5.957,7.45,1111122 
DISL,ioos:station:DISL:DISL:1,2010-11-05T07:30:00Z,30.2513,-88.0778,5.807,7.39,1111122 
DISL,ioos:station:DISL:DISL:1,2010-11-05T08:00:00Z,30.2513,-88.0778,5.759,7.41,1111122 
DISL,ioos:station:DISL:DISL:1,2010-11-05T08:30:00Z,30.2513,-88.0778,5.851,7.4,1111122 
DISL,ioos:station:DISL:DISL:1,2010-11-05T09:00:00Z,30.2513,-88.0778,5.735,7.37,1111122 
DISL,ioos:station:DISL:DISL:1,2010-11-05T09:30:00Z,30.2513,-88.0778,5.624,7.38,1111122 
DISL,ioos:station:DISL:DISL:1,2010-11-05T10:00:00Z,30.2513,-88.0778,5.537,7.39,1111122 
DISL,ioos:station:DISL:DISL:1,2010-11-05T10:30:00Z,30.2513,-88.0778,5.504,7.41,1111122 
DISL,ioos:station:DISL:DISL:1,2010-11-05T11:00:00Z,30.2513,-88.0778,5.443,7.47,1111122 
DISL,ioos:station:DISL:DISL:1,2010-11-05T11:30:00Z,30.2513,-88.0778,5.332,7.48,1111122 
DISL,ioos:station:DISL:DISL:1,2010-11-05T12:00:00Z,30.2513,-88.0778,5.386,7.51,1111122 
DISL,ioos:station:DISL:DISL:1,2010-11-05T12:30:00Z,30.2513,-88.0778,5.212,7.55,1111122 
DISL,ioos:station:DISL:DISL:1,2010-11-05T13:00:00Z,30.2513,-88.0778,5.124,7.59,1111122 
DISL,ioos:station:DISL:DISL:1,2010-11-05T13:30:00Z,30.2513,-88.0778,5.411,7.62,1111122 
DISL,ioos:station:DISL:DISL:1,2010-11-05T14:00:00Z,30.2513,-88.0778,5.32,7.73,1111122 
DISL,ioos:station:DISL:DISL:1,2010-11-05T14:30:00Z,30.2513,-88.0778,5.262,8.16,1111122 
DISL,ioos:station:DISL:DISL:1,2010-11-05T15:00:00Z,30.2513,-88.0778,5.068,8.05,1111122 
DISL,ioos:station:DISL:DISL:1,2010-11-05T15:30:00Z,30.2513,-88.0778,5.354,8.05,1111122 
DISL,ioos:station:DISL:DISL:1,2010-11-05T16:00:00Z,30.2513,-88.0778,5.264,7.98,1111122 
DISL,ioos:station:DISL:DISL:1,2010-11-05T16:30:00Z,30.2513,-88.0778,5.27,8.03,1111122 
DISL,ioos:station:DISL:DISL:1,2010-11-05T17:00:00Z,30.2513,-88.0778,5.282,7.8,1111122 
DISL,ioos:station:DISL:DISL:1,2010-11-05T17:30:00Z,30.2513,-88.0778,5.336,8.0,1111122 
DISL,ioos:station:DISL:DISL:1,2010-11-05T18:00:00Z,30.2513,-88.0778,5.316,8.16,1111122 
DISL,ioos:station:DISL:DISL:1,2010-11-05T18:30:00Z,30.2513,-88.0778,5.56,8.27,1111122 
DISL,ioos:station:DISL:DISL:1,2010-11-05T19:00:00Z,30.2513,-88.0778,5.423,8.4,1111122 
DISL,ioos:station:DISL:DISL:1,2010-11-05T19:30:00Z,30.2513,-88.0778,5.514,8.68,1111122 
DISL,ioos:station:DISL:DISL:1,2010-11-05T20:00:00Z,30.2513,-88.0778,5.75,8.69,1111122 
DISL,ioos:station:DISL:DISL:1,2010-11-05T20:30:00Z,30.2513,-88.0778,5.577,8.82,1111122 
DISL,ioos:station:DISL:DISL:1,2010-11-05T21:00:00Z,30.2513,-88.0778,5.814,8.95,1111122 
DISL,ioos:station:DISL:DISL:1,2010-11-05T21:30:00Z,30.2513,-88.0778,5.895,9.03,1111122 
DISL,ioos:station:DISL:DISL:1,2010-11-05T22:00:00Z,30.2513,-88.0778,5.784,8.93,1111122 
DISL,ioos:station:DISL:DISL:1,2010-11-05T22:30:00Z,30.2513,-88.0778,5.947,8.91,1111122 
DISL,ioos:station:DISL:DISL:1,2010-11-05T23:00:00Z,30.2513,-88.0778,6.081,8.91,1111122 
DISL,ioos:station:DISL:DISL:1,2010-11-05T23:30:00Z,30.2513,-88.0778,6.172,8.95,1111122 
DISL,ioos:station:DISL:DISL:1,2010-11-06T00:00:00Z,30.2513,-88.0778,6.2,8.88,1111122 
DISL,ioos:station:DISL:DISL:1,2010-11-06T00:30:00Z,30.2513,-88.0778,6.202,8.83,1111122 
DISL,ioos:station:DISL:DISL:1,2010-11-06T01:00:00Z,30.2513,-88.0778,6.337,8.38,1111122 
DISL,ioos:station:DISL:DISL:1,2010-11-06T01:30:00Z,30.2513,-88.0778,6.14,8.27,1111122 
DISL,ioos:station:DISL:DISL:1,2010-11-06T02:00:00Z,30.2513,-88.0778,6.291,8.42,1111122 
DISL,ioos:station:DISL:DISL:1,2010-11-06T02:30:00Z,30.2513,-88.0778,6.379,8.56,1111122 
DISL,ioos:station:DISL:DISL:1,2010-11-06T03:00:00Z,30.2513,-88.0778,6.496,8.48,1111122 
DISL,ioos:station:DISL:DISL:1,2010-11-06T03:30:00Z,30.2513,-88.0778,6.417,8.46,1111122 
DISL,ioos:station:DISL:DISL:1,2010-11-06T04:00:00Z,30.2513,-88.0778,6.232,8.4,1111122 
DISL,ioos:station:DISL:DISL:1,2010-11-06T04:30:00Z,30.2513,-88.0778,6.178,8.35,1111122 
DISL,ioos:station:DISL:DISL:1,2010-11-06T05:00:00Z,30.2513,-88.0778,6.26,8.34,1111122 
DISL,ioos:station:DISL:DISL:1,2010-11-06T05:30:00Z,30.2513,-88.0778,6.078,8.3,1111122 
DISL,ioos:station:DISL:DISL:1,2010-11-06T06:00:00Z,30.2513,-88.0778,6.216,8.29,1111122 
DISL,ioos:station:DISL:DISL:1,2010-11-06T06:30:00Z,30.2513,-88.0778,6.063,8.28,1111122 
DISL,ioos:station:DISL:DISL:1,2010-11-06T07:00:00Z,30.2513,-88.0778,5.946,8.27,1111122 
DISL,ioos:station:DISL:DISL:1,2010-11-06T07:30:00Z,30.2513,-88.0778,5.384,8.29,1111122 
DISL,ioos:station:DISL:DISL:1,2010-11-06T08:00:00Z,30.2513,-88.0778,5.437,8.41,1111122 
DISL,ioos:station:DISL:DISL:1,2010-11-06T08:30:00Z,30.2513,-88.0778,5.651,8.53,1111122 
DISL,ioos:station:DISL:DISL:1,2010-11-06T09:00:00Z,30.2513,-88.0778,5.47,8.52,1111122 
DISL,ioos:station:DISL:DISL:1,2010-11-06T09:30:00Z,30.2513,-88.0778,5.462,8.34,1111122 
DISL,ioos:station:DISL:DISL:1,2010-11-06T10:00:00Z,30.2513,-88.0778,5.196,8.36,1111122 
DISL,ioos:station:DISL:DISL:1,2010-11-06T10:30:00Z,30.2513,-88.0778,5.223,8.37,1111122 
DISL,ioos:station:DISL:DISL:1,2010-11-06T11:00:00Z,30.2513,-88.0778,4.955,8.37,1111122 
DISL,ioos:station:DISL:DISL:1,2010-11-06T11:30:00Z,30.2513,-88.0778,5.109,8.32,1111122 
DISL,ioos:station:DISL:DISL:1,2010-11-06T12:00:00Z,30.2513,-88.0778,4.694,8.27,1111122 
DISL,ioos:station:DISL:DISL:1,2010-11-06T12:30:00Z,30.2513,-88.0778,4.801,8.21,1111122 
DISL,ioos:station:DISL:DISL:1,2010-11-06T13:00:00Z,30.2513,-88.0778,4.713,8.24,1111122 
DISL,ioos:station:DISL:DISL:1,2010-11-06T13:30:00Z,30.2513,-88.0778,4.623,8.24,1111122 
DISL,ioos:station:DISL:DISL:1,2010-11-06T14:00:00Z,30.2513,-88.0778,4.533,8.29,1111122 
DISL,ioos:station:DISL:DISL:1,2010-11-06T14:30:00Z,30.2513,-88.0778,4.617,8.3,1111122 
DISL,ioos:station:DISL:DISL:1,2010-11-06T15:00:00Z,30.2513,-88.0778,4.27,8.31,1111122 
DISL,ioos:station:DISL:DISL:1,2010-11-06T15:30:00Z,30.2513,-88.0778,4.649,8.41,1111122 